[Iaude] MPEC D08: 2024 CB7 [a=2.12,e=0.55,i=2.5,H=26.0]
    mpec at cfa.harvard.edu 
    mpec at cfa.harvard.edu
       
    Fri Feb 16 08:24:01 EST 2024
    
    
  
M.P.E.C. 2024-D08                             Issued 2024 February 16, 13:22 UT
     The Minor Planet Electronic Circulars contain information on unusual
         minor planets, routine data on comets and natural satellites,
         and occasional editorial announcements.  They are published
    on behalf of Division F of the International Astronomical Union by the
          Minor Planet Center, Smithsonian Astrophysical Observatory,
                          Cambridge, MA 02138, U.S.A.
			  
             Prepared using the Tamkin Foundation Computer Network
                              MPC at CFA.HARVARD.EDU
            URL https://www.minorplanetcenter.net/    ISSN 1523-6714
                                    2024 CB7                                    
Observations:
     K24C07B 1C2024 02 15.47369513 23 49.812+31 51 15.80         18.28GVED008703
     K24C07B 1C2024 02 15.47597513 23 47.494+31 49 25.75         18.49GVED008703
     K24C07B 1C2024 02 15.47825213 23 45.060+31 47 33.76         18.49GVED008703
     K24C07B 1C2024 02 15.48053313 23 42.695+31 45 44.24         18.73GVED008703
     K24C07B*KC2024 02 15.53594313 22 46.067+31 01 01.52         18.79GVED008I52
     K24C07B KC2024 02 15.53697213 22 45.044+31 00 11.99         18.72GVED008I52
     K24C07B KC2024 02 15.53801413 22 44.011+30 59 21.95         18.62GVED008I52
     K24C07B KC2024 02 15.53903913 22 43.000+30 58 32.52         18.80GVED008I52
     K24C07B KB2024 02 15.99576 13 18 08.04 +25 28 27.7          19.0 GXED008M45
     K24C07B KB2024 02 15.99794 13 18 06.43 +25 27 03.5          18.7 GXED008M45
     K24C07B KB2024 02 16.03911 13 17 40.42 +25 00 14.0          18.4 GXED008G00
     K24C07B KB2024 02 16.04170 13 17 38.57 +24 58 36.4          18.5 GXED008G00
     K24C07B KB2024 02 16.04427 13 17 36.72 +24 56 58.8          18.6 GXED008G00
     K24C07B KC2024 02 16.07019813 17 19.17 +24 41 03.0          18.8 GVED008L01
     K24C07B KC2024 02 16.07170713 17 18.10 +24 40 06.4          18.7 GVED008L01
     K24C07B KC2024 02 16.07321713 17 17.00 +24 39 09.4          19.0 GVED008L01
     K24C07B KC2024 02 16.07472813 17 15.91 +24 38 12.4          18.7 GVED008L01
     K24C07B KC2024 02 16.07651413 17 14.64 +24 37 05.3          18.9 GVED008L01
     K24C07B 1C2024 02 16.45326213 14 01.100+20 59 02.80         18.68GVED008703
     K24C07B 1C2024 02 16.45537313 13 59.732+20 57 53.71         18.99GVED008703
     K24C07B 1C2024 02 16.45748213 13 58.422+20 56 46.86         18.91GVED008703
     K24C07B 1C2024 02 16.45959213 13 56.968+20 55 38.17         19.03GVED008703
Observer details:
703 Catalina Sky Survey.  Observer H. Groeller.  Measurers T. Beuden, V. F.
    Carvajal, D. Fay, J. B. Fazekas, D. C. Fuls, A. R. Gibbs, A. D. Grauer, H.
    Groeller, J. K. Hogan, R. A. Kowalski, S. M. Larson, G. J. Leonard, D.
    Rankin, R. L. Seaman, F. C. Shelly, K. W. Wierzchos.  0.68-m Schmidt + 10K
    CCD.
G00 AZM Martinsberg, Oed.  Observers M. Jaeger, E. Prosperi.  Measurer M.
    Jaeger.  0.28-m f/2.2 reflector + CMO.
I52 Steward Observatory, Mt. Lemmon Station.  Observer J. B. Fazekas.
    Measurers E. C. Beshore, D. Fay, J. B. Fazekas, D. C. Fuls, A. R. Gibbs,
    A. D. Grauer, H. Groeller, J. K. Hogan, R. A. Kowalski, S. M. Larson, G.
    J. Leonard, D. Rankin, R. L. Seaman, F. C. Shelly, K. W. Wierzchos.  1.0-m
    prime focus + CCD.
L01 Visnjan Observatory, Tican.  Observer K. Korlevic.  1.0-m f/2.9 reflector
    + CCD.
M45 Starhopper Observatory, Sfantu Gheorghe.  Observer F. Ursache.  0.41-m
    f/7.5 reflector + CMO.
Orbital elements:
2024 CB7                                                 Earth MOID = 0.0115 AU
Epoch 2024 Mar. 31.0 TT = JDT 2460400.5                 Bell                    
M  20.50731              (2000.0)            P               Q                  
n   0.31819682     Peri.  142.75191     -0.51707536     -0.85578890             
a   2.1249016      Node   338.37015     +0.77443586     -0.45975738             
e   0.5466001      Incl.    2.49957     +0.36453007     -0.23716767             
P   3.10           H   26.09          G   0.15           U   8                  
Residuals in seconds of arc
240215 703  0.7-  0.6-    240215 M45  0.1+  0.2-    240216 L01  0.3-  0.0
240215 703  0.5+  0.5+    240215 M45  0.1-  0.3-    240216 L01  0.0   0.0
240215 703  0.1+  0.6-    240216 G00  0.0   0.5-    240216 703  0.4+  0.1+
240215 703  0.5+  1.0+    240216 G00  0.1+  0.3+    240216 703  0.0   0.7-
240215 I52  0.1+  0.0     240216 G00  0.1-  0.3+    240216 703  0.3+  0.7+
240215 I52  0.0   0.0     240216 L01  0.3-  0.1+    240216 703  1.4-  0.3+
240215 I52  0.1-  0.1+    240216 L01  0.1-  0.3+
240215 I52  0.1-  0.1-    240216 L01  0.2-  0.1+
Ephemeris:
2024 CB7                 a,e,i = 2.12, 0.55, 2                   q = 0.9634
Date    TT    R. A. (2000) Decl.     Delta      r    Elong.  Phase     V
2024 01 17    00 36 52.3 +19 33 27   0.1274  0.9710    80.6    92.0    24.8
...
2024 02 01    00 37 02.9 +26 16 51   0.05982 0.9658    69.4   107.3    23.9
...
2024 02 09    00 19 20.3 +43 41 07   0.02381 0.9789    70.6   108.1    22.0
...
2024 02 15    13 31 33.9 +38 54 03   0.01362 0.9955   125.1    54.3    18.7
2024 02 16    13 17 52.5 +25 29 37   0.01675 0.9988   130.7    48.6    19.0
2024 02 17    13 10 25.4 +16 36 21   0.02053 1.0022   133.5    45.7    19.4
...
2024 02 23    12 54 58.5 -02 37 02   0.04727 1.0257   139.8    38.5    21.1
...
2024 03 02    12 47 19.8 -08 24 34   0.08563 1.0641   147.3    30.2    22.2
...
2024 03 17    12 36 07.6 -10 34 04   0.1642  1.1530   163.0    14.6    23.3
M. P. C. Staff               (C) Copyright 2024 MPC           M.P.E.C. 2024-D08
    
    
More information about the Iaude
mailing list